• In Hungary
  • List of Countries
  • For 7 days
  • Water Temperature
  • Satellite Maps
  • Weather Map
  • News
  • Weather Widgets
  • user-avatar
    Login

    Hourly Weather Qala i Naw

    Today, 23 May, Wednesday

    Time Temperature Precipitation Wind Pressure Humidity
    00:00 +20°C° 0 mm 2 mps 683 mmHg 31%
    01:00 +19°C° 0 mm 2 mps 683 mmHg 31%
    02:00 +19°C° 0 mm 2 mps 683 mmHg 32%
    03:00 +18°C° 0 mm 2 mps 683 mmHg 33%
    04:00 +18°C° 0 mm 2 mps 683 mmHg 34%
    05:00 +19°C° 0 mm 2 mps 683 mmHg 31%
    06:00 +20°C° 0 mm 2 mps 684 mmHg 29%
    07:00 +21°C° 0 mm 2 mps 684 mmHg 26%
    08:00 +23°C° 0 mm 2 mps 684 mmHg 25%
    09:00 +24°C° 0 mm 2 mps 685 mmHg 23%
    10:00 +26°C° 0 mm 3 mps 685 mmHg 22%
    11:00 +26°C° 0 mm 4 mps 685 mmHg 21%
    12:00 +27°C° 0 mm 5 mps 684 mmHg 20%
    13:00 +28°C° 0 mm 6 mps 684 mmHg 19%
    14:00 +28°C° 0 mm 6 mps 684 mmHg 19%
    15:00 +29°C° 0 mm 7 mps 683 mmHg 18%
    16:00 +29°C° 0 mm 7 mps 683 mmHg 18%
    17:00 +28°C° 0 mm 6 mps 683 mmHg 20%
    18:00 +26°C° 0 mm 5 mps 683 mmHg 21%
    19:00 +25°C° 0 mm 4 mps 683 mmHg 23%
    20:00 +23°C° 0 mm 4 mps 683 mmHg 25%
    21:00 +22°C° 0 mm 3 mps 683 mmHg 26%
    22:00 +21°C° 0 mm 2 mps 683 mmHg 28%
    23:00 +21°C° 0 mm 2 mps 682 mmHg 29%

    Tomorrow, 24 May, Thursday

    Time Temperature Precipitation Wind Pressure Humidity
    00:00 +20°C° 0 mm 2 mps 682 mmHg 31%
    01:00 +20°C° 0 mm 2 mps 681 mmHg 32%
    02:00 +19°C° 0 mm 2 mps 681 mmHg 32%
    03:00 +19°C° 0 mm 2 mps 681 mmHg 33%
    04:00 +18°C° 0 mm 2 mps 681 mmHg 34%
    05:00 +19°C° 0 mm 2 mps 681 mmHg 31%
    06:00 +20°C° 0 mm 2 mps 681 mmHg 29%
    07:00 +21°C° 0 mm 2 mps 682 mmHg 26%
    08:00 +24°C° 0 mm 3 mps 682 mmHg 24%
    09:00 +25°C° 0 mm 4 mps 682 mmHg 21%
    10:00 +27°C° 0 mm 5 mps 682 mmHg 19%
    11:00 +28°C° 0 mm 5 mps 682 mmHg 18%
    12:00 +29°C° 0 mm 6 mps 682 mmHg 17%
    13:00 +30°C° 0 mm 7 mps 681 mmHg 15%
    14:00 +30°C° 0 mm 7 mps 681 mmHg 15%
    15:00 +30°C° 0 mm 7 mps 681 mmHg 15%
    16:00 +30°C° 0 mm 7 mps 680 mmHg 16%
    17:00 +28°C° 0 mm 6 mps 680 mmHg 17%
    18:00 +27°C° 0 mm 5 mps 680 mmHg 19%
    19:00 +26°C° 0 mm 4 mps 680 mmHg 21%
    20:00 +25°C° 0 mm 3 mps 680 mmHg 23%
    21:00 +24°C° 0 mm 3 mps 680 mmHg 25%
    22:00 +23°C° 0 mm 2 mps 680 mmHg 27%
    23:00 +21°C° 0 mm 2 mps 679 mmHg 28%

    Day after tomorrow, 25 May, Friday

    Time Temperature Precipitation Wind Pressure Humidity
    00:00 +21°C° 0 mm 2 mps 679 mmHg 29%
    01:00 +20°C° 0 mm 2 mps 679 mmHg 30%
    02:00 +20°C° 0 mm 2 mps 679 mmHg 31%
    03:00 +20°C° 0 mm 1 mps 678 mmHg 32%
    04:00 +20°C° 0 mm 1 mps 678 mmHg 34%
    05:00 +21°C° 0 mm 1 mps 679 mmHg 31%
    06:00 +22°C° 0 mm 1 mps 679 mmHg 29%
    07:00 +23°C° 0 mm 2 mps 680 mmHg 27%
    08:00 +24°C° 0 mm 2 mps 680 mmHg 26%
    09:00 +25°C° 0 mm 2 mps 680 mmHg 25%
    10:00 +27°C° 0 mm 3 mps 680 mmHg 23%
    11:00 +28°C° 0 mm 3 mps 680 mmHg 22%
    12:00 +29°C° 0 mm 4 mps 680 mmHg 22%
    13:00 +29°C° 0 mm 4 mps 680 mmHg 21%
    14:00 +30°C° 0.2 mm 4 mps 679 mmHg 21%
    15:00 +30°C° 0.2 mm 5 mps 679 mmHg 21%
    16:00 +30°C° 0.2 mm 5 mps 679 mmHg 21%
    17:00 +29°C° 0.1 mm 4 mps 679 mmHg 22%
    18:00 +28°C° 0.1 mm 4 mps 680 mmHg 22%
    19:00 +26°C° 0.1 mm 3 mps 680 mmHg 23%
    20:00 +26°C° 0 mm 2 mps 680 mmHg 24%
    21:00 +25°C° 0 mm 2 mps 680 mmHg 25%
    22:00 +24°C° 0 mm 1 mps 680 mmHg 26%
    23:00 +23°C° 0 mm 1 mps 680 mmHg 27%

    26 May, Saturday

    Time Temperature Precipitation Wind Pressure Humidity
    00:00 +23°C° 0 mm 1 mps 679 mmHg 28%
    01:00 +22°C° 0 mm 1 mps 679 mmHg 28%
    02:00 +21°C° 0 mm 1 mps 679 mmHg 29%
    03:00 +21°C° 0 mm 1 mps 679 mmHg 29%
    04:00 +21°C° 0 mm 1 mps 679 mmHg 30%
    05:00 +22°C° 0 mm 1 mps 680 mmHg 27%
    06:00 +24°C° 0 mm 1 mps 680 mmHg 24%
    07:00 +25°C° 0 mm 1 mps 681 mmHg 22%
    08:00 +26°C° 0 mm 1 mps 681 mmHg 20%
    09:00 +28°C° 0 mm 1 mps 681 mmHg 19%
    10:00 +29°C° 0 mm 1 mps 681 mmHg 17%
    11:00 +30°C° 0 mm 1 mps 681 mmHg 15%
    12:00 +31°C° 0 mm 1 mps 681 mmHg 14%
    13:00 +32°C° 0 mm 2 mps 680 mmHg 12%
    14:00 +32°C° 0 mm 2 mps 680 mmHg 12%
    15:00 +32°C° 0 mm 2 mps 680 mmHg 11%
    16:00 +33°C° 0 mm 3 mps 680 mmHg 10%
    17:00 +31°C° 0 mm 2 mps 680 mmHg 13%
    18:00 +29°C° 0 mm 1 mps 680 mmHg 15%
    19:00 +28°C° 0 mm 1 mps 680 mmHg 18%
    20:00 +27°C° 0 mm 1 mps 680 mmHg 18%
    21:00 +27°C° 0 mm 2 mps 680 mmHg 18%
    22:00 +26°C° 0 mm 2 mps 680 mmHg 18%
    23:00 +26°C° 0 mm 2 mps 680 mmHg 18%

    27 May, Sunday

    Time Temperature Precipitation Wind Pressure Humidity
    00:00 +25°C° 0 mm 2 mps 680 mmHg 18%
    01:00 +25°C° 0 mm 2 mps 680 mmHg 18%
    02:00 +24°C° 0 mm 2 mps 680 mmHg 19%
    03:00 +24°C° 0 mm 2 mps 680 mmHg 19%
    04:00 +23°C° 0 mm 2 mps 680 mmHg 20%
    05:00 +25°C° 0 mm 2 mps 681 mmHg 18%
    06:00 +26°C° 0 mm 2 mps 681 mmHg 17%
    07:00 +28°C° 0 mm 2 mps 682 mmHg 15%
    08:00 +29°C° 0 mm 2 mps 683 mmHg 14%
    09:00 +30°C° 0 mm 2 mps 683 mmHg 13%
    10:00 +32°C° 0 mm 2 mps 683 mmHg 12%
    11:00 +33°C° 0 mm 4 mps 683 mmHg 12%
    12:00 +34°C° 0 mm 5 mps 683 mmHg 12%
    13:00 +35°C° 0 mm 6 mps 683 mmHg 12%
    14:00 +34°C° 0 mm 7 mps 683 mmHg 15%
    15:00 +33°C° 0 mm 8 mps 683 mmHg 19%
    16:00 +32°C° 0 mm 9 mps 683 mmHg 22%
    17:00 +31°C° 0 mm 9 mps 684 mmHg 27%
    18:00 +28°C° 0 mm 8 mps 684 mmHg 32%
    19:00 +27°C° 0 mm 7 mps 685 mmHg 37%
    20:00 +26°C° 0 mm 6 mps 685 mmHg 40%
    21:00 +24°C° 0 mm 6 mps 686 mmHg 42%
    22:00 +23°C° 0 mm 5 mps 686 mmHg 44%
    23:00 +22°C° 0 mm 5 mps 686 mmHg 46%

    28 May, Monday

    Time Temperature Precipitation Wind Pressure Humidity
    00:00 +21°C° 0 mm 5 mps 686 mmHg 48%
    01:00 +20°C° 0 mm 5 mps 685 mmHg 49%
    02:00 +20°C° 0 mm 5 mps 685 mmHg 49%
    03:00 +19°C° 0 mm 4 mps 685 mmHg 48%
    04:00 +18°C° 0 mm 4 mps 685 mmHg 47%
    05:00 +19°C° 0 mm 4 mps 686 mmHg 46%
    06:00 +19°C° 0 mm 4 mps 686 mmHg 44%
    07:00 +19°C° 0 mm 4 mps 686 mmHg 43%
    08:00 +20°C° 0 mm 4 mps 686 mmHg 42%
    09:00 +21°C° 0 mm 4 mps 686 mmHg 40%
    10:00 +22°C° 0 mm 4 mps 686 mmHg 39%
    11:00 +23°C° 0 mm 4 mps 685 mmHg 36%
    12:00 +25°C° 0 mm 5 mps 685 mmHg 33%
    13:00 +26°C° 0 mm 5 mps 684 mmHg 31%
    14:00 +26°C° 0 mm 6 mps 684 mmHg 29%
    15:00 +26°C° 0 mm 6 mps 684 mmHg 27%
    16:00 +26°C° 0 mm 6 mps 683 mmHg 25%
    17:00 +24°C° 0 mm 6 mps 683 mmHg 25%
    18:00 +23°C° 0 mm 6 mps 683 mmHg 25%
    19:00 +22°C° 0 mm 5 mps 683 mmHg 25%
    20:00 +21°C° 0 mm 4 mps 683 mmHg 25%
    21:00 +20°C° 0 mm 4 mps 683 mmHg 26%
    22:00 +19°C° 0 mm 3 mps 683 mmHg 26%
    23:00 +18°C° 0 mm 3 mps 683 mmHg 27%
    Show more